Regional Weather Roundup
Issued by NWS Upton, NY

Current Version | Previous Version | Text Only | Print | Product List | Glossary On
Versions: 1 2 3 4 5 6 7 8 9 10 11 12 13 14 15 16 17 18 19 20 21 22 23 24 25 26 27
000
ASUS41 KOKX 221508
RWROKX

REGIONAL WEATHER ROUNDUP
NATIONAL WEATHER SERVICE NEW YORK NY
1000 AM EST WED FEB 22 2017

NOTE: "FAIR" INDICATES FEW OR NO CLOUDS BELOW 12,000 FEET WITH NO
SIGNIFICANT WEATHER AND/OR OBSTRUCTIONS TO VISIBILITY.

NYZ071-072-176-178-NJZ106-104-221600-
NEW YORK CITY METRO AREA

CITY           SKY/WX    TMP DP  RH WIND       PRES   REMARKS
Central Park   CLOUDY    46  36  68 W7        30.05F
Wall St Helipt NOT AVBL
LaGuardia APRT CLOUDY    49  36  61 SW6       30.03F
Kennedy INTL   CLOUDY    45  39  79 S6        30.05F
Breezy Point     N/A     43 N/A N/A W2          N/A
Newark/Liberty CLOUDY    47  37  68 SW7       30.04S
Teterboro      CLOUDY    46  36  68 VRB3      30.03F
$$

NYZ177-179-078>081-221600-
LONG ISLAND NEW YORK

CITY           SKY/WX    TMP DP  RH WIND       PRES   REMARKS
Jones Beach      N/A     43 N/A N/A W5          N/A
Matinecock PT  NOT AVBL
Farmingdale    MOSUNNY   47  39  74 W8        30.04F
MacArthur/ISP  LGT RAIN  47  40  76 SW9       30.03F
Shirley        CLOUDY    46  40  79 W7        30.04F
Westhampton    CLOUDY    45  39  79 SW8       30.05F
Southampton    NOT AVBL
Bridgehampton  NOT AVBL
East Hampton   PTSUNNY   46  38  74 W6        30.04S
Montauk          N/A     47  37  68 SW7       30.04F
$$

NYZ052-065-067-221600-
HUDSON VALLEY

CITY           SKY/WX    TMP DP  RH WIND       PRES   REMARKS
White Plains   CLOUDY    43  35  73 VRB5      30.01F
Newburgh       CLOUDY    43  36  75 SW7       30.02F
Montgomery     CLOUDY    44  36  73 SW8       29.99F
Poughkeepsie   CLOUDY    45  35  68 W3        30.01F
Albany         PTSUNNY   45  32  60 S7        30.00F
$$

NJZ001-105-106-008-010-013-015-019>022-104-221600-
NEW JERSEY

CITY           SKY/WX    TMP DP  RH WIND       PRES   REMARKS
Newark/Liberty CLOUDY    47  37  68 SW7       30.04S
Teterboro      CLOUDY    46  36  68 VRB3      30.03F
Caldwell       CLOUDY    44  35  70 SW3       30.04F
Somerville     CLOUDY    44  35  70 CALM      30.02F
Linden         NOT AVBL
Sussex         LGT RAIN  42  38  85 CALM      30.01F
Andover          N/A     42  35  76 CALM      30.01F
Trenton        CLOUDY    45  39  79 S3        30.03F
Millville      CLOUDY    48  43  82 VRB5      30.04F
Atlantic City  MOSUNNY   49  42  77 S8        30.05F
Wrightstown    CLOUDY    44  39  84 SW5       30.02S
Toms River     MOSUNNY   47  42  83 SW5       30.05F
Belmar         CLOUDY    44  40  85 SW5       30.05F
$$

PAZ047>061-062-071-221600-
EASTERN PENNSYLVANIA

CITY           SKY/WX    TMP DP  RH WIND       PRES   REMARKS
Philadelphia   CLOUDY    45  38  76 W7        30.05S
Allentown      CLOUDY    45  35  68 W3        30.02F
Scranton       CLOUDY    46  39  76 N3        29.99F
$$

CTZ002-004>006-009-010-012-RIZ004-006-007-MAZ004-011-015-221600-
SOUTHERN NEW ENGLAND
 IN CT

CITY           SKY/WX    TMP DP  RH WIND       PRES   REMARKS
Bradley INTL   PTSUNNY   44  34  67 S6        30.01F
Hartford       CLOUDY    43  35  73 SE3       30.02F
Danbury        CLOUDY    43  34  70 SW6       30.02F
Wtrbury/Oxford CLOUDY    43  32  65 CALM      30.01F
Bridgeport     CLOUDY    45  36  70 SW7       30.03F
Meriden        CLOUDY    45  35  68 SE3       30.02F
New Haven      CLOUDY    43  36  76 SW6       30.03F
Chester        CLOUDY    45  36  70 CALM      30.02F
Groton         CLOUDY    44  38  79 SW8       30.02F
Wilimantic     CLOUDY    44  35  70 SW5       30.03F

 IN RI

CITY           SKY/WX    TMP DP  RH WIND       PRES   REMARKS
Providence     PTSUNNY   46  35  65 W7        30.02F
Block Island   CLOUDY    45  39  79 SW16      30.02F
Westerly       CLOUDY    45  36  70 W9        30.03F
 IN MA

CITY           SKY/WX    TMP DP  RH WIND       PRES   REMARKS
Boston         CLOUDY    45  35  68 W6        30.00F
Worcester      CLOUDY    43  31  62 W8        29.97F
Westfield      MOSUNNY   39  33  79 SW5       30.00F
Provincetown   CLOUDY    43  38  82 SW8       30.01F
Nantucket      CLOUDY    45  39  79 S13       30.03F
$$

ANZ330-335-338-340-345-350-353-355-221600-
COASTAL MARINE OBSERVATIONS


STATION/POSITION TIME  SKY/WX   TEMP    WIND        PRES    VSBY  WAVE
                                AIR SEA DIR/SP/G                  HT/PER
                 (UTC)          (F)     (DEG/KT/KT) (MB)    (MI)  (FT/S)
NY HARB ENTRANCE 1450            43 42  210/  4/  4 1017.2          2/ 8
20 S FIRE ISLAND 1450            44 43  210/  6/  6 1017.4          2/ 8
GREAT SOUTH BAY  NOT AVBL
23 SSW MONTAUK P 1350            45 44              1018.1          3/12
15 E BARNEGAT LI 1430               42                N/A           2/ 8
HUDSON CANYON    1350               49              1018.3          3/ 8
KINGS POINT      1448            44 38              1016.9
EXECUTION ROCKS  NOT AVBL
CENTRAL LI SOUND 1400            40     230/  4/  4   N/A           0
EASTERN LI SOUND NOT AVBL
ROBBINS REEF     1448            43     160/  2/  2 1017.4
$$


>>>>>>>>>>>>>>>>>>>>>>>>>>>> KEY <<<<<<<<<<<<<<<<<<<<<<<<<<<
>                                                          <
>     SKY/WX - Sky Condition/Present Weather               <
>     TMP    - Temperature in Fahrenheit                   <
>     DP     - Dew Point in Fahrenheit                     <
>     RH     - Relative Humidity in Percent                <
>     WIND   - Direction (from) and Speed in MPH           <
>     PRES   - Mean Sea Level Pressure (inches of Hg)      <
>     WCI    - Wind Chill Index                            <
>     VSB    - VISIBILITY IN MILES                         <
>     HX     - HEAT INDEX                                  <
>     TC     - TEMPERATURE IN CELSIUS                      <
>     VRB    - VARIABLE WIND DIRECTION                     <
>                                                          <
>>>>>>>>>>>>>>>>>>>>>>>>>>>> KEY <<<<<<<<<<<<<<<<<<<<<<<<<<<




USA.gov is the U.S. government's official web portal to all federal, state and local government web resources and services.